GW4646 Weather Reports


Display with metric or nautical units.
time (UTC)temp
F
wind
direction
speed
MPH
gust
MPH
rain 1hr
in
rain 24hr
in
rain mn
in
humidity
%
barometer
mb
20260507103520 73 288 0.0 6.0 0.00 0.00 0.00 89 1017.0
20260507103019 74 342 1.0 9.0 0.00 0.00 0.00 89 1017.1
20260507102517 74 11 2.0 9.0 0.00 0.00 0.00 89 1017.1
20260507102016 74 89 1.0 8.0 0.00 0.00 0.00 88 1017.1
20260507101517 74 325 1.0 8.0 0.00 0.00 0.00 89 1017.1
20260507101012 74 309 2.0 8.0 0.00 0.00 0.00 89 1017.2
20260507100516 74 46 2.0 8.0 0.00 0.00 0.00 89 1017.2
20260507100009 74 329 1.0 7.0 0.00 0.00 0.00 89 1017.2
20260507095509 74 281 1.0 6.0 0.00 0.00 0.00 88 1017.2
20260507095010 74 308 2.0 6.0 0.00 0.00 0.00 88 1017.3
20260507094509 74 328 2.0 8.0 0.00 0.00 0.00 88 1017.3
20260507094009 74 44 1.0 10.0 0.00 0.00 0.00 88 1017.2
20260507093509 74 49 3.0 10.0 0.00 0.00 0.00 88 1017.3
20260507093011 74 325 1.0 8.0 0.00 0.00 0.00 89 1017.4
20260507092512 74 301 2.0 11.0 0.00 0.00 0.00 89 1017.4
20260507092008 74 288 3.0 11.0 0.00 0.00 0.00 89 1017.4
20260507091509 74 108 3.0 8.0 0.00 0.00 0.00 89 1017.5
20260507091009 74 355 2.0 10.0 0.00 0.00 0.00 89 1017.5
20260507090509 74 305 3.0 10.0 0.00 0.00 0.00 89 1017.6
20260507090007 74 17 2.0 8.0 0.00 0.00 0.00 89 1017.6
20260507085508 74 290 1.0 8.0 0.00 0.00 0.00 89 1017.7
20260507085008 74 327 1.0 6.0 0.00 0.00 0.00 89 1017.7
20260507084512 74 336 2.0 6.0 0.00 0.00 0.00 89 1017.6
20260507084008 74 320 1.0 6.0 0.00 0.00 0.00 89 1017.7
20260507083509 74 11 1.0 7.0 0.00 0.00 0.00 89 1017.7
20260507083006 74 295 1.0 7.0 0.00 0.00 0.00 89 1017.7
20260507082507 74 296 2.0 5.0 0.00 0.00 0.00 89 1017.7
20260507082006 74 333 1.0 5.0 0.00 0.00 0.00 89 1017.7
20260507081506 74 57 2.0 5.0 0.00 0.00 0.00 89 1017.7
20260507081006 74 63 1.0 4.0 0.00 0.00 0.00 89 1017.7
20260507080511 74 61 1.0 6.0 0.00 0.00 0.00 89 1017.7
20260507080010 74 313 0.0 6.0 0.00 0.00 0.00 89 1017.6
20260507075505 74 271 1.0 5.0 0.00 0.00 0.00 88 1017.6
20260507075005 74 319 1.0 7.0 0.00 0.00 0.00 88 1017.6
20260507074505 74 263 1.0 7.0 0.00 0.00 0.00 88 1017.6
20260507074004 75 333 1.0 8.0 0.00 0.00 0.00 88 1017.5
20260507073504 75 290 2.0 8.0 0.00 0.00 0.00 87 1017.5
20260507073003 75 337 2.0 8.0 0.00 0.00 0.00 87 1017.5
20260507072503 75 311 2.0 6.0 0.00 0.00 0.00 87 1017.4
20260507072004 75 257 1.0 6.0 0.00 0.00 0.00 86 1017.4
20260507071502 75 280 1.0 8.0 0.00 0.00 0.00 86 1017.3
20260507071002 75 343 1.0 8.0 0.00 0.00 0.00 86 1017.3
20260507070600 75 317 1.0 6.0 0.00 0.00 0.00 85 1017.3
20260507070100 75 278 2.0 8.0 0.00 0.00 0.00 85 1017.2
20260507065558 75 321 1.0 9.0 0.00 0.00 0.00 85 1017.1
20260507065058 75 52 2.0 8.0 0.00 0.00 0.00 85 1017.0
20260507064613 75 38 2.0 8.0 0.00 0.00 0.00 84 1016.9
20260507064059 75 79 2.0 8.0 0.00 0.00 0.00 84 1016.9
20260507063556 76 56 1.0 8.0 0.00 0.00 0.00 84 1016.8
20260507063057 76 26 2.0 13.0 0.00 0.00 0.00 84 1016.7
20260507062554 76 57 3.0 13.0 0.00 0.00 0.00 83 1016.7
20260507062054 76 355 3.0 10.0 0.00 0.00 0.00 83 1016.7
20260507061554 76 96 2.0 7.0 0.00 0.00 0.00 83 1016.6
20260507061054 76 15 2.0 8.0 0.00 0.00 0.00 83 1016.5
20260507060553 76 331 2.0 10.0 0.00 0.00 0.00 82 1016.5
20260507060059 76 310 3.0 8.0 0.00 0.00 0.00 82 1016.4
20260507055553 76 30 2.0 11.0 0.00 0.00 0.00 82 1016.4
20260507055053 76 64 3.0 11.0 0.00 0.00 0.00 82 1016.3
20260507054605 76 340 1.0 11.0 0.00 0.00 0.00 82 1016.3
20260507054053 76 316 3.0 11.0 0.00 0.00 0.00 82 1016.2
20260507053553 76 67 2.0 9.0 0.00 0.00 0.00 82 1016.2
20260507053053 76 304 2.0 8.0 0.00 0.00 0.00 82 1016.1
20260507052552 76 49 2.0 8.0 0.00 0.00 0.00 82 1016.0
20260507052052 76 92 2.0 9.0 0.00 0.00 0.00 82 1015.8
20260507051555 77 333 3.0 11.0 0.00 0.00 0.00 82 1015.8
20260507051052 77 35 1.0 11.0 0.00 0.00 0.00 81 1015.7
20260507050552 77 22 1.0 6.0 0.00 0.00 0.00 81 1015.7
20260507050051 77 49 2.0 6.0 0.00 0.00 0.00 81 1015.5
20260507045554 77 344 2.0 7.0 0.00 0.00 0.00 81 1015.4
20260507045051 77 300 3.0 7.0 0.00 0.00 0.00 81 1015.4
20260507044551 77 285 2.0 9.0 0.00 0.00 0.00 80 1015.4
20260507044051 78 319 2.0 9.0 0.00 0.00 0.00 80 1015.3
20260507043551 78 277 3.0 9.0 0.00 0.00 0.00 80 1015.2
20260507043059 78 52 3.0 12.0 0.00 0.00 0.00 80 1015.3
20260507042550 78 307 5.0 12.0 0.00 0.00 0.00 79 1015.2
20260507042050 79 69 4.0 10.0 0.00 0.00 0.00 78 1015.1
20260507041602 79 336 3.0 10.0 0.00 0.00 0.00 77 1015.0
20260507041051 80 329 2.0 12.0 0.00 0.00 0.00 76 1014.9
20260507040553 80 43 4.0 12.0 0.00 0.00 0.00 76 1014.8
20260507040055 80 308 4.0 10.0 0.00 0.00 0.00 75 1014.8
20260507035549 80 314 4.0 14.0 0.00 0.00 0.00 74 1014.7
20260507035050 81 332 4.0 14.0 0.00 0.00 0.00 73 1014.7
20260507034553 80 292 5.0 12.0 0.00 0.00 0.00 73 1014.7
20260507034049 81 259 3.0 12.0 0.00 0.00 0.00 73 1014.6
20260507033549 81 333 5.0 12.0 0.00 0.00 0.00 73 1014.6
20260507033050 81 229 5.0 14.0 0.00 0.00 0.00 72 1014.5
20260507032549 82 350 4.0 14.0 0.00 0.00 0.00 71 1014.5
20260507032053 82 242 3.0 13.0 0.00 0.00 0.00 71 1014.5
20260507031549 82 288 3.0 14.0 0.00 0.00 0.00 69 1014.4
20260507031052 82 55 4.0 14.0 0.00 0.00 0.00 68 1014.4
20260507030548 83 319 4.0 12.0 0.00 0.00 0.00 68 1014.4
20260507030053 83 86 4.0 10.0 0.00 0.00 0.00 67 1014.3
20260507025548 83 88 3.0 11.0 0.00 0.00 0.00 67 1014.2
20260507025048 83 306 3.0 12.0 0.00 0.00 0.00 68 1014.1
20260507024548 83 332 3.0 12.0 0.00 0.00 0.00 68 1014.1
20260507024047 83 339 4.0 11.0 0.00 0.00 0.00 67 1014.1
20260507023547 83 166 4.0 11.0 0.00 0.00 0.00 68 1014.1
20260507023103 83 258 5.0 13.0 0.00 0.00 0.00 68 1014.1
20260507022548 83 51 4.0 13.0 0.00 0.00 0.00 67 1014.1
20260507022048 83 347 4.0 11.0 0.00 0.00 0.00 67 1014.1
20260507021551 83 312 4.0 11.0 0.00 0.00 0.00 68 1014.2
20260507021048 84 298 3.0 10.0 0.00 0.00 0.00 66 1014.2
20260507020546 84 62 3.0 11.0 0.00 0.00 0.00 65 1014.2
20260507020046 85 277 4.0 11.0 0.00 0.00 0.00 63 1014.3
20260507015545 85 283 4.0 15.0 0.00 0.00 0.00 64 1014.3
20260507015045 85 334 4.0 15.0 0.00 0.00 0.00 64 1014.3
20260507014557 86 24 4.0 10.0 0.00 0.00 0.00 62 1014.3
20260507014045 86 43 3.0 12.0 0.00 0.00 0.00 63 1014.3
20260507013544 85 71 5.0 12.0 0.00 0.00 0.00 63 1014.3
20260507013103 85 63 4.0 10.0 0.00 0.00 0.00 63 1014.3
20260507012545 85 90 5.0 12.0 0.00 0.00 0.00 60 1014.3
20260507012045 86 233 6.0 12.0 0.00 0.00 0.00 61 1014.4
20260507011545 86 35 3.0 11.0 0.00 0.00 0.00 61 1014.3
20260507011044 87 86 3.0 10.0 0.00 0.00 0.00 60 1014.4
20260507010544 86 72 5.0 10.0 0.00 0.00 0.00 61 1014.4
20260507010044 86 319 4.0 10.0 0.00 0.00 0.00 61 1014.5
20260507005543 86 281 3.0 11.0 0.00 0.00 0.00 60 1014.5
20260507005044 87 335 3.0 10.0 0.00 0.00 0.00 60 1014.5
20260507004543 86 253 3.0 11.0 0.00 0.00 0.00 59 1014.6
20260507004044 86 44 5.0 11.0 0.00 0.00 0.00 60 1014.6
20260507003543 86 265 3.0 11.0 0.00 0.00 0.00 61 1014.6
20260507003044 85 301 5.0 13.0 0.00 0.00 0.00 61 1014.6
20260507002544 86 300 4.0 12.0 0.00 0.00 0.00 60 1014.6
20260507002043 86 331 4.0 12.0 0.00 0.00 0.00 60 1014.7
20260507001600 87 65 5.0 11.0 0.00 0.00 0.00 59 1014.7
20260507001045 87 73 3.0 10.0 0.00 0.00 0.00 60 1014.8
20260507000542 87 311 5.0 11.0 0.00 0.00 0.00 59 1014.9
20260507000042 86 331 5.0 11.0 0.00 0.00 0.00 58 1014.8
20260506235544 86 42 3.0 12.0 0.00 0.00 0.00 59 1014.8
20260506235041 87 63 4.0 12.0 0.00 0.00 0.00 58 1014.9
20260506234541 87 289 2.0 10.0 0.00 0.00 0.00 59 1014.9
20260506234045 86 297 4.0 11.0 0.00 0.00 0.00 60 1015.0
20260506233542 87 32 6.0 11.0 0.00 0.00 0.00 59 1015.1
20260506233045 88 292 3.0 11.0 0.00 0.00 0.00 58 1015.1
20260506232543 87 296 3.0 11.0 0.00 0.00 0.00 59 1015.1
20260506232040 87 279 4.0 13.0 0.00 0.00 0.00 60 1015.1
20260506231546 86 302 4.0 13.0 0.00 0.00 0.00 60 1015.1
20260506231040 86 248 3.0 10.0 0.00 0.00 0.00 61 1015.2
20260506230539 86 303 3.0 10.0 0.00 0.00 0.00 61 1015.2
20260506230039 87 315 2.0 12.0 0.00 0.00 0.00 59 1015.3
20260506225539 86 47 2.0 12.0 0.00 0.00 0.00 61 1015.3
20260506225039 86 277 3.0 9.0 0.00 0.00 0.00 60 1015.5
20260506224539 86 69 4.0 9.0 0.00 0.00 0.00 62 1015.5
20260506224038 86 65 3.0 9.0 0.00 0.00 0.00 61 1015.6
20260506223538 87 273 3.0 9.0 0.00 0.00 0.00 60 1015.6
20260506223045 87 271 3.0 9.0 0.00 0.00 0.00 58 1015.6
20260506222537 87 78 2.0 9.0 0.00 0.00 0.00 60 1015.6
20260506222037 87 300 4.0 9.0 0.00 0.00 0.00 59 1015.6
20260506221537 87 279 4.0 10.0 0.00 0.00 0.00 59 1015.6
20260506221036 86 306 4.0 10.0 0.00 0.00 0.00 60 1015.6
20260506220536 87 311 3.0 9.0 0.00 0.00 0.00 60 1015.7
20260506220035 86 42 3.0 10.0 0.00 0.00 0.00 60 1015.6
20260506215535 86 42 3.0 13.0 0.00 0.00 0.00 60 1015.7
20260506215034 86 127 4.0 13.0 0.00 0.00 0.00 61 1015.8
20260506214534 86 292 3.0 14.0 0.00 0.00 0.00 61 1015.9
20260506214033 86 321 3.0 14.0 0.00 0.00 0.00 60 1015.9
20260506213534 87 80 4.0 13.0 0.00 0.00 0.00 60 1016.0
20260506213037 87 335 3.0 9.0 0.00 0.00 0.00 59 1016.0
20260506212533 86 84 2.0 8.0 0.00 0.00 0.00 60 1016.1
20260506212032 86 326 2.0 8.0 0.00 0.00 0.00 61 1016.1
20260506211531 86 306 3.0 10.0 0.00 0.00 0.00 61 1016.2
20260506211030 86 349 3.0 10.0 0.00 0.00 0.00 61 1016.3
20260506210529 85 55 3.0 9.0 0.00 0.00 0.00 61 1016.2
20260506210031 85 46 3.0 8.0 0.00 0.00 0.00 62 1016.2
20260506205527 85 306 2.0 6.0 0.00 0.00 0.00 61 1016.3
20260506205027 85 250 2.0 6.0 0.00 0.00 0.00 61 1016.4
20260506204527 85 276 2.0 8.0 0.00 0.00 0.00 61 1016.3
20260506204026 85 311 3.0 10.0 0.00 0.00 0.00 62 1016.3
20260506203525 84 321 3.0 10.0 0.00 0.00 0.00 64 1016.2
20260506203023 84 228 2.0 6.0 0.00 0.00 0.00 65 1016.2
20260506202523 83 252 3.0 7.0 0.00 0.00 0.00 66 1016.3
20260506202024 83 200 2.0 7.0 0.00 0.00 0.00 65 1016.4
20260506201523 83 235 1.0 6.0 0.00 0.00 0.00 65 1016.4
20260506201023 83 248 1.0 5.0 0.00 0.00 0.00 66 1016.4
20260506200521 83 216 2.0 6.0 0.00 0.00 0.00 66 1016.3
20260506200021 82 193 3.0 6.0 0.00 0.00 0.00 66 1016.3
20260506195520 83 275 2.0 5.0 0.00 0.00 0.00 66 1016.3
20260506195020 83 240 1.0 5.0 0.00 0.00 0.00 65 1016.5
20260506194520 83 220 2.0 7.0 0.00 0.00 0.00 66 1016.5
20260506194023 83 208 2.0 7.0 0.00 0.00 0.00 67 1016.5
20260506193520 83 227 2.0 5.0 0.00 0.00 0.00 67 1016.5
20260506193017 82 230 2.0 5.0 0.00 0.00 0.00 66 1016.6
20260506192517 82 210 2.0 6.0 0.00 0.00 0.00 67 1016.5
20260506192016 81 265 2.0 6.0 0.00 0.00 0.00 70 1016.5
20260506191517 81 205 2.0 5.0 0.00 0.00 0.00 69 1016.4
20260506191015 81 268 2.0 6.0 0.00 0.00 0.00 70 1016.4
20260506190514 80 179 2.0 6.0 0.00 0.00 0.00 70 1016.4
20260506190014 80 245 2.0 6.0 0.00 0.00 0.00 70 1016.4
20260506185614 81 244 1.0 4.0 0.00 0.00 0.00 70 1016.3
20260506185014 80 221 2.0 5.0 0.00 0.00 0.00 70 1016.3
20260506184513 81 244 1.0 5.0 0.00 0.00 0.00 68 1016.3
20260506184013 81 205 3.0 5.0 0.00 0.00 0.00 68 1016.3
20260506183513 82 113 1.0 5.0 0.00 0.00 0.00 68 1016.2
20260506183012 82 215 1.0 3.0 0.00 0.00 0.00 67 1016.3
20260506182513 82 228 0.0 2.0 0.00 0.00 0.00 67 1016.3
20260506182011 81 263 0.0 2.0 0.00 0.00 0.00 67 1016.2
20260506181512 82 202 1.0 2.0 0.00 0.00 0.00 65 1016.2
20260506181013 82 194 0.0 2.0 0.00 0.00 0.00 66 1016.3
20260506180519 82 149 0.0 2.0 0.00 0.00 0.00 67 1016.2
20260506180008 81 313 0.0 0.0 0.00 0.00 0.00 68 1016.1
20260506175511 80 313 0.0 0.0 0.00 0.00 0.00 69 1016.0
20260506175006 80 313 0.0 0.0 0.00 0.00 0.00 68 1016.0
20260506174504 80 313 0.0 0.0 0.00 0.00 0.00 68 1016.0
20260506174006 79 68 0.0 0.0 0.00 0.00 0.00 66 1015.9
20260506173503 80 68 0.0 0.0 0.00 0.00 0.00 64 1015.8
20260506173003 78 68 0.0 0.0 0.00 0.00 0.00 65 1015.8
20260506172600 78 68 0.0 0.0 0.00 0.00 0.00 66 1015.6
20260506172059 76 68 0.0 0.0 0.00 0.00 0.00 67 1015.6
20260506171602 76 68 0.0 0.0 0.00 0.00 0.00 67 1015.6
20260506171057 75 68 0.0 0.0 0.00 0.00 0.00 68 1015.5
20260506170554 74 68 0.0 1.0 0.00 0.00 0.00 71 1015.4
20260506170053 73 68 0.0 1.0 0.00 0.00 0.00 70 1015.5
20260506165552 73 68 0.0 2.0 0.00 0.00 0.00 71 1015.3
20260506165052 72 68 0.0 2.0 0.00 0.00 0.00 72 1015.2
20260506164552 71 69 1.0 2.0 0.00 0.00 0.00 73 1015.1
20260506164051 70 84 0.0 1.0 0.00 0.00 0.00 76 1015.2
20260506163550 69 83 0.0 1.0 0.00 0.00 0.00 78 1015.2
20260506163051 68 83 0.0 1.0 0.00 0.00 0.00 78 1015.1
20260506162553 68 83 0.0 1.0 0.00 0.00 0.00 79 1015.0
20260506162053 67 83 0.0 0.0 0.00 0.00 0.00 79 1015.0
20260506161555 68 83 0.0 0.0 0.00 0.00 0.00 78 1015.0
20260506161049 68 84 0.0 0.0 0.00 0.00 0.00 78 1014.9
20260506160549 68 84 0.0 0.0 0.00 0.00 0.00 77 1014.9
20260506160059 68 84 0.0 1.0 0.00 0.00 0.00 77 1015.0
20260506155548 68 84 0.0 2.0 0.00 0.00 0.00 77 1014.9
20260506155048 68 84 0.0 2.0 0.00 0.00 0.00 78 1014.9
20260506154548 68 96 0.0 2.0 0.00 0.00 0.00 79 1014.7
20260506154048 68 103 0.0 1.0 0.00 0.00 0.00 80 1014.7
20260506153548 68 104 0.0 0.0 0.00 0.00 0.00 80 1014.7
20260506153048 69 103 0.0 2.0 0.00 0.00 0.00 79 1014.7
20260506152548 69 104 0.0 3.0 0.00 0.00 0.00 79 1014.7
20260506152048 69 103 1.0 3.0 0.00 0.00 0.00 79 1014.5
20260506151548 69 69 0.0 2.0 0.00 0.00 0.00 80 1014.6
20260506151047 68 69 0.0 1.0 0.00 0.00 0.00 80 1014.5
20260506150547 69 69 0.0 1.0 0.00 0.00 0.00 80 1014.7
20260506150047 69 69 0.0 3.0 0.00 0.00 0.00 80 1014.4
20260506145550 69 69 1.0 3.0 0.00 0.00 0.00 80 1014.4
20260506145046 69 78 1.0 3.0 0.00 0.00 0.00 81 1014.3
20260506144546 69 78 0.0 2.0 0.00 0.00 0.00 82 1014.4
20260506144046 68 78 0.0 2.0 0.00 0.00 0.00 83 1014.4
20260506143546 68 78 0.0 2.0 0.00 0.00 0.00 84 1014.3
20260506143046 68 78 0.0 0.0 0.00 0.00 0.00 85 1014.2
20260506142544 68 78 0.0 0.0 0.00 0.00 0.00 84 1014.3
20260506142047 68 78 0.0 0.0 0.00 0.00 0.00 84 1014.3
20260506141543 68 78 0.0 0.0 0.00 0.00 0.00 84 1014.3
20260506141043 68 78 0.0 0.0 0.00 0.00 0.00 84 1014.5
20260506140542 68 78 0.0 0.0 0.00 0.00 0.00 84 1014.4
20260506140046 69 78 0.0 1.0 0.00 0.00 0.00 83 1014.4
20260506135540 69 78 0.0 1.0 0.00 0.00 0.00 83 1014.5
20260506135040 69 78 0.0 1.0 0.00 0.00 0.00 83 1014.6
20260506134608 69 78 0.0 1.0 0.00 0.00 0.00 83 1014.5
20260506134039 69 78 0.0 1.0 0.00 0.00 0.00 83 1014.4
20260506133538 69 78 0.0 0.0 0.00 0.00 0.00 83 1014.5
20260506133038 69 78 0.0 0.0 0.00 0.00 0.00 82 1014.6
20260506132537 70 78 0.0 1.0 0.00 0.00 0.00 81 1014.4
20260506132037 70 78 0.0 1.0 0.00 0.00 0.00 81 1014.4
20260506131546 70 78 0.0 0.0 0.00 0.00 0.00 80 1014.3
20260506131036 70 78 0.0 0.0 0.00 0.00 0.00 80 1014.4
20260506130635 70 78 0.0 0.0 0.00 0.00 0.00 80 1014.4
20260506130033 70 78 0.0 3.0 0.00 0.00 0.00 79 1014.4
20260506125533 70 78 0.0 3.0 0.00 0.00 0.00 78 1014.4
20260506125033 71 64 1.0 3.0 0.00 0.00 0.00 78 1014.2
20260506124533 71 65 1.0 3.0 0.00 0.00 0.00 78 1014.3
20260506124033 71 65 0.0 3.0 0.00 0.00 0.00 78 1014.5
20260506123533 71 65 0.0 3.0 0.00 0.00 0.00 78 1014.5
20260506123036 71 65 1.0 4.0 0.00 0.00 0.00 79 1014.4
20260506122533 71 74 1.0 4.0 0.00 0.00 0.00 80 1014.3
20260506122032 71 84 2.0 4.0 0.00 0.00 0.00 80 1014.3
20260506121534 71 67 2.0 4.0 0.00 0.00 0.00 81 1014.3
20260506121030 71 70 1.0 3.0 0.00 0.00 0.00 80 1014.5
20260506120530 71 70 0.0 4.0 0.00 0.00 0.00 80 1014.7
20260506120029 71 70 2.0 4.0 0.00 0.00 0.00 80 1014.7
20260506115528 71 73 1.0 3.0 0.00 0.00 0.00 80 1014.7
20260506115027 71 71 1.0 3.0 0.00 0.00 0.00 80 1014.8
20260506114534 71 52 1.0 3.0 0.00 0.00 0.00 80 1015.0
20260506114027 71 84 1.0 3.0 0.00 0.00 0.00 81 1015.0
20260506113526 71 44 0.0 4.0 0.00 0.00 0.00 81 1015.0
20260506113032 71 63 1.0 4.0 0.00 0.00 0.00 81 1015.1
20260506112524 71 69 1.0 4.0 0.00 0.00 0.00 81 1015.2
20260506112025 71 69 1.0 3.0 0.00 0.00 0.00 81 1015.3
20260506111524 71 70 0.0 3.0 0.00 0.00 0.00 82 1015.4
20260506111023 71 69 0.0 1.0 0.00 0.00 0.00 83 1015.4
20260506110523 71 70 0.0 2.0 0.00 0.00 0.00 83 1015.5
20260506110021 71 69 0.0 2.0 0.00 0.00 0.00 83 1015.6
20260506105519 71 69 0.0 0.0 0.00 0.00 0.00 83 1015.8
20260506105018 71 69 0.0 0.0 0.00 0.00 0.00 83 1016.0
20260506104518 71 69 0.0 0.0 0.00 0.00 0.00 82 1016.1
20260506104017 71 69 0.0 0.0 0.00 0.00 0.00 82 1016.2